Time,TemperatureF,DewpointF,PressureIn,WindDirection,WindDirectionDegrees,WindSpeedMPH,WindSpeedGustMPH,Humidity,HourlyPrecipIn,Conditions,Clouds,dailyrainin,SoftwareType,DateUTC
2013-09-05 00:01:00,61.9,53.3,30.19,NE,54,0.0,2.0,73,0.00,,,0.00,WUHU216DAVISVP2,2013-09-05 05:01:00,
2013-09-05 00:06:00,61.7,53.4,30.19,NE,54,0.0,0.0,74,0.00,,,0.00,WUHU216DAVISVP2,2013-09-05 05:06:00,
2013-09-05 00:11:00,61.4,53.2,30.19,NE,54,0.0,2.0,74,0.00,,,0.00,WUHU216DAVISVP2,2013-09-05 05:11:00,
2013-09-05 00:16:00,61.1,53.2,30.19,NE,54,0.0,2.0,75,0.00,,,0.00,WUHU216DAVISVP2,2013-09-05 05:16:00,
2013-09-05 00:21:00,60.7,53.2,30.19,NE,54,0.0,2.0,76,0.00,,,0.00,WUHU216DAVISVP2,2013-09-05 05:21:00,
2013-09-05 00:26:00,60.3,52.4,30.20,NE,54,0.0,2.0,75,0.00,,,0.00,WUHU216DAVISVP2,2013-09-05 05:26:00,
2013-09-05 00:31:00,59.8,52.3,30.20,NE,54,0.0,1.0,76,0.00,,,0.00,WUHU216DAVISVP2,2013-09-05 05:31:00,
2013-09-05 00:36:00,59.4,52.3,30.20,NE,54,0.0,1.0,77,0.00,,,0.00,WUHU216DAVISVP2,2013-09-05 05:36:00,
2013-09-05 00:41:00,59.2,52.4,30.20,NE,54,0.0,1.0,78,0.00,,,0.00,WUHU216DAVISVP2,2013-09-05 05:41:00,
2013-09-05 00:46:00,58.9,52.5,30.20,NE,54,0.0,0.0,79,0.00,,,0.00,WUHU216DAVISVP2,2013-09-05 05:46:00,
2013-09-05 00:51:00,58.8,52.7,30.20,NE,54,0.0,1.0,80,0.00,,,0.00,WUHU216DAVISVP2,2013-09-05 05:51:00,
2013-09-05 00:56:00,58.6,52.8,30.20,NE,54,0.0,1.0,81,0.00,,,0.00,WUHU216DAVISVP2,2013-09-05 05:56:00,
2013-09-05 01:01:00,58.4,52.6,30.20,NE,54,0.0,1.0,81,0.00,,,0.00,WUHU216DAVISVP2,2013-09-05 06:01:00,
2013-09-05 01:06:00,58.3,52.5,30.21,NE,54,0.0,1.0,81,0.00,,,0.00,WUHU216DAVISVP2,2013-09-05 06:06:00,
2013-09-05 01:11:00,58.1,52.7,30.20,NE,54,0.0,0.0,82,0.00,,,0.00,WUHU216DAVISVP2,2013-09-05 06:11:00,
2013-09-05 01:16:00,58.0,52.9,30.21,NE,54,0.0,0.0,83,0.00,,,0.00,WUHU216DAVISVP2,2013-09-05 06:16:00,
2013-09-05 01:20:00,57.8,53.0,30.21,NE,54,0.0,0.0,84,0.00,,,0.00,WUHU216DAVISVP2,2013-09-05 06:20:00,
2013-09-05 01:25:00,57.8,53.3,30.21,NE,54,0.0,0.0,85,0.00,,,0.00,WUHU216DAVISVP2,2013-09-05 06:25:00,
2013-09-05 01:30:00,57.7,53.2,30.21,NE,54,0.0,0.0,85,0.00,,,0.00,WUHU216DAVISVP2,2013-09-05 06:30:00,
2013-09-05 01:35:00,57.6,53.1,30.21,NE,54,0.0,0.0,85,0.00,,,0.00,WUHU216DAVISVP2,2013-09-05 06:35:00,
2013-09-05 01:40:00,57.4,52.9,30.21,NE,54,0.0,0.0,85,0.00,,,0.00,WUHU216DAVISVP2,2013-09-05 06:40:00,
2013-09-05 01:45:00,57.3,52.8,30.21,NE,54,0.0,0.0,85,0.00,,,0.00,WUHU216DAVISVP2,2013-09-05 06:45:00,
2013-09-05 01:50:00,57.2,53.0,30.21,NE,54,0.0,0.0,86,0.00,,,0.00,WUHU216DAVISVP2,2013-09-05 06:50:00,
2013-09-05 01:55:00,57.1,53.0,30.21,NE,54,0.0,0.0,86,0.00,,,0.00,WUHU216DAVISVP2,2013-09-05 06:55:00,
2013-09-05 02:00:00,57.0,53.2,30.21,NE,54,0.0,0.0,87,0.00,,,0.00,WUHU216DAVISVP2,2013-09-05 07:00:00,
2013-09-05 02:05:00,56.9,53.4,30.21,NE,54,0.0,0.0,88,0.00,,,0.00,WUHU216DAVISVP2,2013-09-05 07:05:00,
2013-09-05 02:10:00,56.9,54.0,30.21,NE,54,0.0,0.0,90,0.00,,,0.00,WUHU216DAVISVP2,2013-09-05 07:10:00,
2013-09-05 02:15:00,56.8,53.9,30.21,NE,54,0.0,0.0,90,0.00,,,0.00,WUHU216DAVISVP2,2013-09-05 07:15:00,
2013-09-05 02:20:00,56.8,53.9,30.21,NE,54,0.0,0.0,90,0.00,,,0.00,WUHU216DAVISVP2,2013-09-05 07:20:00,
2013-09-05 02:25:00,56.8,53.9,30.21,NE,54,0.0,0.0,90,0.00,,,0.00,WUHU216DAVISVP2,2013-09-05 07:25:00,
2013-09-05 02:30:00,56.7,53.8,30.21,NE,54,0.0,0.0,90,0.00,,,0.00,WUHU216DAVISVP2,2013-09-05 07:30:00,
2013-09-05 02:35:00,56.6,54.0,30.21,NE,54,0.0,0.0,91,0.00,,,0.00,WUHU216DAVISVP2,2013-09-05 07:35:00,
2013-09-05 02:40:00,56.5,53.9,30.21,NE,54,0.0,0.0,91,0.00,,,0.00,WUHU216DAVISVP2,2013-09-05 07:40:00,
2013-09-05 02:45:00,56.4,53.5,30.21,NE,54,0.0,0.0,90,0.00,,,0.00,WUHU216DAVISVP2,2013-09-05 07:45:00,
2013-09-05 02:50:00,56.2,53.6,30.21,NE,54,0.0,0.0,91,0.00,,,0.00,WUHU216DAVISVP2,2013-09-05 07:50:00,
2013-09-05 02:55:00,56.1,53.5,30.21,NE,54,0.0,0.0,91,0.00,,,0.00,WUHU216DAVISVP2,2013-09-05 07:55:00,
2013-09-05 03:00:00,55.9,53.3,30.21,NE,54,0.0,1.0,91,0.00,,,0.00,WUHU216DAVISVP2,2013-09-05 08:00:00,
2013-09-05 03:05:00,55.8,53.2,30.21,NE,54,0.0,1.0,91,0.00,,,0.00,WUHU216DAVISVP2,2013-09-05 08:05:00,
2013-09-05 03:10:00,55.7,53.4,30.21,NE,54,0.0,1.0,92,0.00,,,0.00,WUHU216DAVISVP2,2013-09-05 08:10:00,
2013-09-05 03:15:00,55.6,53.3,30.21,NE,54,0.0,1.0,92,0.00,,,0.00,WUHU216DAVISVP2,2013-09-05 08:15:00,
2013-09-05 03:20:00,55.5,53.2,30.21,NE,54,0.0,0.0,92,0.00,,,0.00,WUHU216DAVISVP2,2013-09-05 08:20:00,
2013-09-05 03:25:00,55.4,53.1,30.21,NE,54,0.0,0.0,92,0.00,,,0.00,WUHU216DAVISVP2,2013-09-05 08:25:00,
2013-09-05 03:30:00,55.4,53.4,30.21,NE,54,0.0,0.0,93,0.00,,,0.00,WUHU216DAVISVP2,2013-09-05 08:30:00,
2013-09-05 03:35:00,55.3,53.3,30.21,NE,54,0.0,0.0,93,0.00,,,0.00,WUHU216DAVISVP2,2013-09-05 08:35:00,
2013-09-05 03:40:00,55.3,53.3,30.21,NE,54,0.0,0.0,93,0.00,,,0.00,WUHU216DAVISVP2,2013-09-05 08:40:00,
2013-09-05 03:45:00,55.2,53.2,30.21,NE,54,0.0,1.0,93,0.00,,,0.00,WUHU216DAVISVP2,2013-09-05 08:45:00,
2013-09-05 03:50:00,55.2,53.2,30.21,NE,54,0.0,1.0,93,0.00,,,0.00,WUHU216DAVISVP2,2013-09-05 08:50:00,
2013-09-05 03:55:00,55.2,53.2,30.21,NE,54,0.0,1.0,93,0.00,,,0.00,WUHU216DAVISVP2,2013-09-05 08:55:00,
2013-09-05 04:00:00,55.2,53.5,30.22,NE,54,0.0,1.0,94,0.00,,,0.00,WUHU216DAVISVP2,2013-09-05 09:00:00,
2013-09-05 04:05:00,55.1,53.1,30.22,NE,54,0.0,1.0,93,0.00,,,0.00,WUHU216DAVISVP2,2013-09-05 09:05:00,
2013-09-05 04:10:00,55.1,53.1,30.22,NE,54,0.0,1.0,93,0.00,,,0.00,WUHU216DAVISVP2,2013-09-05 09:10:00,
2013-09-05 04:15:00,55.0,53.0,30.22,NE,54,0.0,1.0,93,0.00,,,0.00,WUHU216DAVISVP2,2013-09-05 09:15:00,
2013-09-05 04:20:00,55.0,53.0,30.22,NE,54,0.0,0.0,93,0.00,,,0.00,WUHU216DAVISVP2,2013-09-05 09:20:00,
2013-09-05 04:25:00,54.9,52.9,30.22,NE,54,0.0,0.0,93,0.00,,,0.00,WUHU216DAVISVP2,2013-09-05 09:25:00,
2013-09-05 04:30:00,54.9,52.9,30.22,SW,219,0.0,3.0,93,0.00,,,0.00,WUHU216DAVISVP2,2013-09-05 09:30:00,
2013-09-05 04:35:00,54.9,52.9,30.22,SW,219,0.0,3.0,93,0.00,,,0.00,WUHU216DAVISVP2,2013-09-05 09:35:00,
2013-09-05 04:40:00,55.0,53.0,30.23,SW,219,0.0,3.0,93,0.00,,,0.00,WUHU216DAVISVP2,2013-09-05 09:40:00,
2013-09-05 04:45:00,55.0,52.7,30.23,West,260,0.0,3.0,92,0.00,,,0.00,WUHU216DAVISVP2,2013-09-05 09:45:00,
2013-09-05 04:50:00,54.9,52.6,30.23,West,260,0.0,2.0,92,0.00,,,0.00,WUHU216DAVISVP2,2013-09-05 09:50:00,
2013-09-05 04:55:00,54.9,52.6,30.23,ESE,113,1.0,2.0,92,0.00,,,0.00,WUHU216DAVISVP2,2013-09-05 09:55:00,
2013-09-05 05:00:00,54.9,52.6,30.23,ESE,112,0.0,1.0,92,0.00,,,0.00,WUHU216DAVISVP2,2013-09-05 10:00:00,
2013-09-05 05:05:00,54.9,52.6,30.23,ESE,112,0.0,1.0,92,0.00,,,0.00,WUHU216DAVISVP2,2013-09-05 10:05:00,
2013-09-05 05:10:00,54.9,52.6,30.23,ESE,112,0.0,1.0,92,0.00,,,0.00,WUHU216DAVISVP2,2013-09-05 10:10:00,
2013-09-05 05:15:00,54.9,52.6,30.23,ESE,112,0.0,1.0,92,0.00,,,0.00,WUHU216DAVISVP2,2013-09-05 10:15:00,
2013-09-05 05:20:00,54.8,52.5,30.23,ESE,112,0.0,1.0,92,0.00,,,0.00,WUHU216DAVISVP2,2013-09-05 10:20:00,
2013-09-05 05:25:00,54.8,52.8,30.23,ESE,112,0.0,1.0,93,0.00,,,0.00,WUHU216DAVISVP2,2013-09-05 10:25:00,
2013-09-05 05:30:00,54.8,52.8,30.23,ESE,112,0.0,1.0,93,0.00,,,0.00,WUHU216DAVISVP2,2013-09-05 10:30:00,
2013-09-05 05:35:00,54.8,52.8,30.23,ESE,112,0.0,1.0,93,0.00,,,0.00,WUHU216DAVISVP2,2013-09-05 10:35:00,
2013-09-05 05:40:00,54.7,52.7,30.23,ESE,112,0.0,1.0,93,0.00,,,0.00,WUHU216DAVISVP2,2013-09-05 10:40:00,
2013-09-05 05:45:00,54.6,52.6,30.23,ESE,112,0.0,2.0,93,0.00,,,0.00,WUHU216DAVISVP2,2013-09-05 10:45:00,
2013-09-05 05:50:00,54.6,52.6,30.24,ESE,112,0.0,2.0,93,0.00,,,0.00,WUHU216DAVISVP2,2013-09-05 10:50:00,
2013-09-05 05:55:00,54.5,52.5,30.24,ESE,112,0.0,2.0,93,0.00,,,0.00,WUHU216DAVISVP2,2013-09-05 10:55:00,
2013-09-05 06:00:00,54.5,52.8,30.24,ESE,112,0.0,2.0,94,0.00,,,0.00,WUHU216DAVISVP2,2013-09-05 11:00:00,
2013-09-05 06:05:00,54.5,52.8,30.24,ESE,112,0.0,1.0,94,0.00,,,0.00,WUHU216DAVISVP2,2013-09-05 11:05:00,
2013-09-05 06:10:00,54.5,52.8,30.25,ESE,112,0.0,1.0,94,0.00,,,0.00,WUHU216DAVISVP2,2013-09-05 11:10:00,
2013-09-05 06:15:00,54.5,53.1,30.25,ESE,112,0.0,0.0,95,0.00,,,0.00,WUHU216DAVISVP2,2013-09-05 11:15:00,
2013-09-05 06:20:00,54.5,53.1,30.25,ESE,112,0.0,0.0,95,0.00,,,0.00,WUHU216DAVISVP2,2013-09-05 11:20:00,
2013-09-05 06:25:00,54.5,53.1,30.25,ESE,112,0.0,0.0,95,0.00,,,0.00,WUHU216DAVISVP2,2013-09-05 11:25:00,
2013-09-05 06:30:00,54.5,53.1,30.25,ESE,112,1.0,1.0,95,0.00,,,0.00,WUHU216DAVISVP2,2013-09-05 11:30:00,
2013-09-05 06:35:00,54.5,53.1,30.25,ESE,112,0.0,2.0,95,0.00,,,0.00,WUHU216DAVISVP2,2013-09-05 11:35:00,
2013-09-05 06:40:00,54.6,53.4,30.25,SSE,162,0.0,2.0,96,0.00,,,0.00,WUHU216DAVISVP2,2013-09-05 11:40:00,
2013-09-05 06:45:00,54.6,53.4,30.25,SSE,162,0.0,2.0,96,0.00,,,0.00,WUHU216DAVISVP2,2013-09-05 11:45:00,
2013-09-05 06:50:00,54.6,53.4,30.25,SSE,162,0.0,2.0,96,0.00,,,0.00,WUHU216DAVISVP2,2013-09-05 11:50:00,
2013-09-05 06:55:00,54.6,53.4,30.25,SSE,162,0.0,2.0,96,0.00,,,0.00,WUHU216DAVISVP2,2013-09-05 11:55:00,
2013-09-05 07:00:00,54.7,53.5,30.25,SSE,162,0.0,1.0,96,0.00,,,0.00,WUHU216DAVISVP2,2013-09-05 12:00:00,
2013-09-05 07:04:00,54.8,53.6,30.25,SSE,162,0.0,1.0,96,0.00,,,0.00,WUHU216DAVISVP2,2013-09-05 12:04:00,
2013-09-05 07:09:00,54.8,53.6,30.25,SSE,162,0.0,1.0,96,0.00,,,0.00,WUHU216DAVISVP2,2013-09-05 12:09:00,
2013-09-05 07:14:00,54.8,53.6,30.25,SSE,162,0.0,1.0,96,0.00,,,0.00,WUHU216DAVISVP2,2013-09-05 12:14:00,
2013-09-05 07:19:00,55.0,54.1,30.25,SSE,162,0.0,1.0,97,0.00,,,0.00,WUHU216DAVISVP2,2013-09-05 12:19:00,
2013-09-05 07:24:00,55.0,54.1,30.25,SSE,162,0.0,2.0,97,0.00,,,0.00,WUHU216DAVISVP2,2013-09-05 12:24:00,
2013-09-05 07:29:00,55.1,54.2,30.25,SSE,162,0.0,2.0,97,0.00,,,0.00,WUHU216DAVISVP2,2013-09-05 12:29:00,
2013-09-05 07:34:00,55.2,54.3,30.25,SE,138,0.0,2.0,97,0.00,,,0.00,WUHU216DAVISVP2,2013-09-05 12:34:00,
2013-09-05 07:39:00,55.3,54.5,30.25,SE,138,0.0,2.0,97,0.00,,,0.00,WUHU216DAVISVP2,2013-09-05 12:39:00,
2013-09-05 07:44:00,55.4,54.6,30.25,SSE,167,0.0,2.0,97,0.00,,,0.00,WUHU216DAVISVP2,2013-09-05 12:44:00,
2013-09-05 07:49:00,55.5,54.7,30.25,SSE,167,0.0,2.0,97,0.00,,,0.00,WUHU216DAVISVP2,2013-09-05 12:49:00,
2013-09-05 07:54:00,55.6,54.8,30.25,SE,143,0.0,2.0,97,0.00,,,0.00,WUHU216DAVISVP2,2013-09-05 12:54:00,
2013-09-05 07:59:00,55.7,54.6,30.25,SW,214,0.0,4.0,96,0.00,,,0.00,WUHU216DAVISVP2,2013-09-05 12:59:00,
2013-09-05 08:04:00,55.8,54.7,30.26,SSW,194,4.0,4.0,96,0.00,,,0.00,WUHU216DAVISVP2,2013-09-05 13:04:00,
2013-09-05 08:09:00,56.0,54.9,30.26,SSW,196,6.0,6.0,96,0.00,,,0.00,WUHU216DAVISVP2,2013-09-05 13:09:00,
2013-09-05 08:14:00,56.2,55.4,30.25,SSW,192,3.0,6.0,97,0.00,,,0.00,WUHU216DAVISVP2,2013-09-05 13:14:00,
2013-09-05 08:19:00,56.4,55.6,30.25,SSE,165,1.0,6.0,97,0.00,,,0.00,WUHU216DAVISVP2,2013-09-05 13:19:00,
2013-09-05 08:24:00,56.7,55.9,30.25,SSW,197,0.0,6.0,97,0.00,,,0.00,WUHU216DAVISVP2,2013-09-05 13:24:00,
2013-09-05 08:29:00,57.0,56.2,30.25,SW,219,1.0,5.0,97,0.00,,,0.00,WUHU216DAVISVP2,2013-09-05 13:29:00,
2013-09-05 08:34:00,57.3,56.5,30.25,SSW,194,4.0,7.0,97,0.00,,,0.00,WUHU216DAVISVP2,2013-09-05 13:34:00,
2013-09-05 08:39:00,57.7,56.6,30.25,SSW,196,0.0,7.0,96,0.00,,,0.00,WUHU216DAVISVP2,2013-09-05 13:39:00,
2013-09-05 08:44:00,58.0,56.6,30.25,SSW,196,0.0,8.0,95,0.00,,,0.00,WUHU216DAVISVP2,2013-09-05 13:44:00,
2013-09-05 08:49:00,58.4,56.4,30.25,SSW,192,0.0,9.0,93,0.00,,,0.00,WUHU216DAVISVP2,2013-09-05 13:49:00,
2013-09-05 08:54:00,58.8,56.2,30.25,SSW,193,0.0,9.0,91,0.00,,,0.00,WUHU216DAVISVP2,2013-09-05 13:54:00,
2013-09-05 08:59:00,59.4,56.2,30.25,SSW,202,0.0,9.0,89,0.00,,,0.00,WUHU216DAVISVP2,2013-09-05 13:59:00,
2013-09-05 09:04:00,59.9,56.0,30.25,SSW,199,7.0,9.0,87,0.00,,,0.00,WUHU216DAVISVP2,2013-09-05 14:04:00,
2013-09-05 09:09:00,60.3,55.8,30.25,SSW,196,1.0,8.0,85,0.00,,,0.00,WUHU216DAVISVP2,2013-09-05 14:09:00,
2013-09-05 09:14:00,60.7,55.8,30.25,SSW,194,0.0,8.0,84,0.00,,,0.00,WUHU216DAVISVP2,2013-09-05 14:14:00,
2013-09-05 09:19:00,61.1,56.2,30.25,SSW,211,0.0,8.0,84,0.00,,,0.00,WUHU216DAVISVP2,2013-09-05 14:19:00,
2013-09-05 09:24:00,61.5,56.3,30.25,SSW,200,0.0,8.0,83,0.00,,,0.00,WUHU216DAVISVP2,2013-09-05 14:24:00,
2013-09-05 09:29:00,62.2,56.6,30.25,South,190,4.0,8.0,82,0.00,,,0.00,WUHU216DAVISVP2,2013-09-05 14:29:00,
2013-09-05 09:34:00,63.1,56.8,30.25,SSW,198,0.0,9.0,80,0.00,,,0.00,WUHU216DAVISVP2,2013-09-05 14:34:00,
2013-09-05 09:39:00,63.9,56.6,30.25,ENE,74,0.0,9.0,77,0.00,,,0.00,WUHU216DAVISVP2,2013-09-05 14:39:00,
2013-09-05 09:44:00,64.7,56.3,30.25,SSW,196,1.0,9.0,74,0.00,,,0.00,WUHU216DAVISVP2,2013-09-05 14:44:00,
2013-09-05 09:49:00,65.2,56.8,30.25,South,184,0.0,9.0,74,0.00,,,0.00,WUHU216DAVISVP2,2013-09-05 14:49:00,
2013-09-05 09:54:00,65.8,56.7,30.25,SW,215,8.0,8.0,72,0.00,,,0.00,WUHU216DAVISVP2,2013-09-05 14:54:00,
2013-09-05 09:59:00,66.2,55.5,30.25,SW,215,0.0,10.0,68,0.00,,,0.00,WUHU216DAVISVP2,2013-09-05 14:59:00,
2013-09-05 10:04:00,66.7,56.0,30.25,SSW,196,5.0,10.0,68,0.00,,,0.00,WUHU216DAVISVP2,2013-09-05 15:04:00,
2013-09-05 10:09:00,67.1,55.5,30.25,South,180,0.0,10.0,66,0.00,,,0.00,WUHU216DAVISVP2,2013-09-05 15:09:00,
2013-09-05 10:14:00,67.5,56.3,30.25,ENE,67,0.0,9.0,67,0.00,,,0.00,WUHU216DAVISVP2,2013-09-05 15:14:00,
2013-09-05 10:19:00,68.0,56.8,30.25,South,185,0.0,9.0,67,0.00,,,0.00,WUHU216DAVISVP2,2013-09-05 15:19:00,
2013-09-05 10:24:00,68.4,55.9,30.25,South,189,0.0,7.0,64,0.00,,,0.00,WUHU216DAVISVP2,2013-09-05 15:24:00,
2013-09-05 10:29:00,68.8,56.3,30.25,SW,214,0.0,8.0,64,0.00,,,0.00,WUHU216DAVISVP2,2013-09-05 15:29:00,
2013-09-05 10:34:00,69.3,56.8,30.25,SSW,192,0.0,8.0,64,0.00,,,0.00,WUHU216DAVISVP2,2013-09-05 15:34:00,
2013-09-05 10:39:00,69.6,56.2,30.25,SSE,163,0.0,8.0,62,0.00,,,0.00,WUHU216DAVISVP2,2013-09-05 15:39:00,
2013-09-05 10:44:00,69.8,56.4,30.25,SE,142,0.0,8.0,62,0.00,,,0.00,WUHU216DAVISVP2,2013-09-05 15:44:00,
2013-09-05 10:49:00,70.3,56.9,30.25,South,191,3.0,12.0,62,0.00,,,0.00,WUHU216DAVISVP2,2013-09-05 15:49:00,
2013-09-05 10:54:00,70.7,55.4,30.25,SSW,193,5.0,12.0,58,0.00,,,0.00,WUHU216DAVISVP2,2013-09-05 15:54:00,
2013-09-05 10:59:00,71.0,56.6,30.25,South,189,0.0,12.0,60,0.00,,,0.00,WUHU216DAVISVP2,2013-09-05 15:59:00,
2013-09-05 11:04:00,71.2,56.8,30.25,SSW,202,6.0,12.0,60,0.00,,,0.00,WUHU216DAVISVP2,2013-09-05 16:04:00,
2013-09-05 11:09:00,71.4,56.0,30.25,SSW,208,0.0,9.0,58,0.00,,,0.00,WUHU216DAVISVP2,2013-09-05 16:09:00,
2013-09-05 11:14:00,71.7,55.8,30.25,South,188,1.0,9.0,57,0.00,,,0.00,WUHU216DAVISVP2,2013-09-05 16:14:00,
2013-09-05 11:19:00,71.9,57.0,30.25,SSW,210,3.0,9.0,59,0.00,,,0.00,WUHU216DAVISVP2,2013-09-05 16:19:00,
2013-09-05 11:24:00,72.3,57.4,30.25,SW,220,0.0,8.0,59,0.00,,,0.00,WUHU216DAVISVP2,2013-09-05 16:24:00,
2013-09-05 11:29:00,72.5,57.5,30.25,SSW,202,0.0,7.0,59,0.00,,,0.00,WUHU216DAVISVP2,2013-09-05 16:29:00,
2013-09-05 11:34:00,72.7,56.3,30.25,SSW,200,0.0,7.0,56,0.00,,,0.00,WUHU216DAVISVP2,2013-09-05 16:34:00,
2013-09-05 11:39:00,72.9,55.4,30.25,South,172,0.0,7.0,54,0.00,,,0.00,WUHU216DAVISVP2,2013-09-05 16:39:00,
2013-09-05 11:44:00,73.1,56.6,30.25,SW,222,0.0,10.0,56,0.00,,,0.00,WUHU216DAVISVP2,2013-09-05 16:44:00,
2013-09-05 11:49:00,73.3,56.3,30.25,SSW,209,0.0,10.0,55,0.00,,,0.00,WUHU216DAVISVP2,2013-09-05 16:49:00,
2013-09-05 11:54:00,73.7,58.2,30.25,SSW,194,0.0,9.0,58,0.00,,,0.00,WUHU216DAVISVP2,2013-09-05 16:54:00,
2013-09-05 11:59:00,73.9,55.8,30.25,SSW,194,5.0,9.0,53,0.00,,,0.00,WUHU216DAVISVP2,2013-09-05 16:59:00,
2013-09-05 12:04:00,74.0,57.0,30.25,SSE,150,0.0,6.0,55,0.00,,,0.00,WUHU216DAVISVP2,2013-09-05 17:04:00,
2013-09-05 12:09:00,74.1,56.0,30.25,ENE,78,0.0,6.0,53,0.00,,,0.00,WUHU216DAVISVP2,2013-09-05 17:09:00,
2013-09-05 12:14:00,74.1,57.1,30.25,SSW,205,1.0,6.0,55,0.00,,,0.00,WUHU216DAVISVP2,2013-09-05 17:14:00,
2013-09-05 12:19:00,74.0,57.0,30.25,SSW,209,0.0,6.0,55,0.00,,,0.00,WUHU216DAVISVP2,2013-09-05 17:19:00,
2013-09-05 12:24:00,73.8,57.3,30.25,SSW,195,0.0,6.0,56,0.00,,,0.00,WUHU216DAVISVP2,2013-09-05 17:24:00,
2013-09-05 12:29:00,73.6,56.6,30.25,SSW,194,3.0,5.0,55,0.00,,,0.00,WUHU216DAVISVP2,2013-09-05 17:29:00,
2013-09-05 12:34:00,73.5,57.5,30.24,SSW,202,3.0,4.0,57,0.00,,,0.00,WUHU216DAVISVP2,2013-09-05 17:34:00,
2013-09-05 12:39:00,73.4,56.9,30.24,SSW,195,3.0,6.0,56,0.00,,,0.00,WUHU216DAVISVP2,2013-09-05 17:39:00,
2013-09-05 12:44:00,73.4,58.4,30.24,South,186,0.0,6.0,59,0.00,,,0.00,WUHU216DAVISVP2,2013-09-05 17:44:00,
2013-09-05 12:48:00,73.5,57.0,30.24,NNW,347,0.0,6.0,56,0.00,,,0.00,WUHU216DAVISVP2,2013-09-05 17:48:00,
2013-09-05 12:53:00,73.6,56.6,30.23,SW,218,0.0,6.0,55,0.00,,,0.00,WUHU216DAVISVP2,2013-09-05 17:53:00,
2013-09-05 12:58:00,73.8,55.7,30.23,SSW,203,4.0,5.0,53,0.00,,,0.00,WUHU216DAVISVP2,2013-09-05 17:58:00,
2013-09-05 13:03:00,74.2,57.1,30.23,South,171,1.0,5.0,55,0.00,,,0.00,WUHU216DAVISVP2,2013-09-05 18:03:00,
2013-09-05 13:08:00,74.8,59.2,30.23,SSE,163,0.0,6.0,58,0.00,,,0.00,WUHU216DAVISVP2,2013-09-05 18:08:00,
2013-09-05 13:13:00,75.5,59.9,30.22,ENE,59,1.0,6.0,58,0.00,,,0.00,WUHU216DAVISVP2,2013-09-05 18:13:00,
2013-09-05 13:18:00,76.1,57.9,30.22,SE,138,0.0,6.0,53,0.00,,,0.00,WUHU216DAVISVP2,2013-09-05 18:18:00,
2013-09-05 13:23:00,76.5,57.7,30.22,ENE,67,0.0,6.0,52,0.00,,,0.00,WUHU216DAVISVP2,2013-09-05 18:23:00,
2013-09-05 13:28:00,76.8,58.4,30.22,NNW,328,0.0,4.0,53,0.00,,,0.00,WUHU216DAVISVP2,2013-09-05 18:28:00,
2013-09-05 13:33:00,77.1,57.6,30.21,NNE,32,0.0,3.0,51,0.00,,,0.00,WUHU216DAVISVP2,2013-09-05 18:33:00,
2013-09-05 13:38:00,77.5,58.5,30.20,NE,44,0.0,4.0,52,0.00,,,0.00,WUHU216DAVISVP2,2013-09-05 18:38:00,
2013-09-05 13:43:00,78.0,58.9,30.20,SW,221,2.0,4.0,52,0.00,,,0.00,WUHU216DAVISVP2,2013-09-05 18:43:00,
2013-09-05 13:48:00,78.3,58.1,30.21,South,177,0.0,5.0,50,0.00,,,0.00,WUHU216DAVISVP2,2013-09-05 18:48:00,
2013-09-05 13:53:00,78.6,58.4,30.21,South,172,0.0,5.0,50,0.00,,,0.00,WUHU216DAVISVP2,2013-09-05 18:53:00,
2013-09-05 13:58:00,78.8,58.0,30.20,SSE,158,1.0,5.0,49,0.00,,,0.00,WUHU216DAVISVP2,2013-09-05 18:58:00,
2013-09-05 14:03:00,79.2,60.6,30.20,South,184,0.0,5.0,53,0.00,,,0.00,WUHU216DAVISVP2,2013-09-05 19:03:00,
2013-09-05 14:08:00,79.4,57.4,30.20,SW,232,0.0,6.0,47,0.00,,,0.00,WUHU216DAVISVP2,2013-09-05 19:08:00,
2013-09-05 14:13:00,79.6,58.8,30.20,SSW,211,0.0,6.0,49,0.00,,,0.00,WUHU216DAVISVP2,2013-09-05 19:13:00,
2013-09-05 14:18:00,79.8,58.9,30.20,NE,40,0.0,6.0,49,0.00,,,0.00,WUHU216DAVISVP2,2013-09-05 19:18:00,
2013-09-05 14:23:00,80.0,57.4,30.19,SE,138,0.0,6.0,46,0.00,,,0.00,WUHU216DAVISVP2,2013-09-05 19:23:00,
2013-09-05 14:28:00,80.3,60.0,30.19,South,180,0.0,3.0,50,0.00,,,0.00,WUHU216DAVISVP2,2013-09-05 19:28:00,
2013-09-05 14:33:00,80.8,59.3,30.19,ENE,61,0.0,4.0,48,0.00,,,0.00,WUHU216DAVISVP2,2013-09-05 19:33:00,
2013-09-05 14:38:00,81.2,58.5,30.19,ESE,103,0.0,6.0,46,0.00,,,0.00,WUHU216DAVISVP2,2013-09-05 19:38:00,
2013-09-05 14:43:00,81.3,57.9,30.19,SE,141,0.0,6.0,45,0.00,,,0.00,WUHU216DAVISVP2,2013-09-05 19:43:00,
2013-09-05 14:48:00,81.3,59.7,30.19,ESE,113,0.0,7.0,48,0.00,,,0.00,WUHU216DAVISVP2,2013-09-05 19:48:00,
2013-09-05 14:53:00,81.3,59.1,30.18,South,182,0.0,7.0,47,0.00,,,0.00,WUHU216DAVISVP2,2013-09-05 19:53:00,
2013-09-05 14:58:00,81.4,58.6,30.18,SSW,211,0.0,7.0,46,0.00,,,0.00,WUHU216DAVISVP2,2013-09-05 19:58:00,
2013-09-05 15:03:00,81.8,59.6,30.18,SSE,167,0.0,7.0,47,0.00,,,0.00,WUHU216DAVISVP2,2013-09-05 20:03:00,
2013-09-05 15:08:00,82.1,58.7,30.18,SSW,194,0.0,5.0,45,0.00,,,0.00,WUHU216DAVISVP2,2013-09-05 20:08:00,
2013-09-05 15:13:00,82.0,57.9,30.17,South,190,0.0,5.0,44,0.00,,,0.00,WUHU216DAVISVP2,2013-09-05 20:13:00,
2013-09-05 15:18:00,81.7,57.7,30.17,South,169,3.0,5.0,44,0.00,,,0.00,WUHU216DAVISVP2,2013-09-05 20:18:00,
2013-09-05 15:23:00,81.2,57.2,30.17,SE,142,0.0,5.0,44,0.00,,,0.00,WUHU216DAVISVP2,2013-09-05 20:23:00,
2013-09-05 15:28:00,80.7,56.1,30.17,ESE,114,1.0,5.0,43,0.00,,,0.00,WUHU216DAVISVP2,2013-09-05 20:28:00,
2013-09-05 15:33:00,80.2,56.3,30.17,SE,138,0.0,5.0,44,0.00,,,0.00,WUHU216DAVISVP2,2013-09-05 20:33:00,
2013-09-05 15:38:00,79.9,57.3,30.17,ESE,113,0.0,4.0,46,0.00,,,0.00,WUHU216DAVISVP2,2013-09-05 20:38:00,
2013-09-05 15:43:00,79.8,57.8,30.17,SSW,196,0.0,5.0,47,0.00,,,0.00,WUHU216DAVISVP2,2013-09-05 20:43:00,
2013-09-05 15:48:00,79.8,58.4,30.16,East,92,0.0,5.0,48,0.00,,,0.00,WUHU216DAVISVP2,2013-09-05 20:48:00,
2013-09-05 15:53:00,79.7,57.7,30.16,SSW,201,0.0,5.0,47,0.00,,,0.00,WUHU216DAVISVP2,2013-09-05 20:53:00,
2013-09-05 15:58:00,79.4,57.5,30.16,SSW,194,0.0,5.0,47,0.00,,,0.00,WUHU216DAVISVP2,2013-09-05 20:58:00,
2013-09-05 16:03:00,79.2,57.9,30.16,WNW,286,1.0,6.0,48,0.00,,,0.00,WUHU216DAVISVP2,2013-09-05 21:03:00,
2013-09-05 16:08:00,78.8,56.3,30.16,SW,217,0.0,6.0,46,0.00,,,0.00,WUHU216DAVISVP2,2013-09-05 21:08:00,
2013-09-05 16:13:00,78.5,56.0,30.16,South,180,0.0,6.0,46,0.00,,,0.00,WUHU216DAVISVP2,2013-09-05 21:13:00,
2013-09-05 16:18:00,78.2,58.7,30.15,SSW,196,0.0,6.0,51,0.00,,,0.00,WUHU216DAVISVP2,2013-09-05 21:18:00,
2013-09-05 16:23:00,78.0,57.4,30.16,SSW,202,1.0,4.0,49,0.00,,,0.00,WUHU216DAVISVP2,2013-09-05 21:23:00,
2013-09-05 16:28:00,77.8,58.8,30.15,SSW,196,0.0,5.0,52,0.00,,,0.00,WUHU216DAVISVP2,2013-09-05 21:28:00,
2013-09-05 16:33:00,77.7,59.2,30.15,SSE,163,0.0,5.0,53,0.00,,,0.00,WUHU216DAVISVP2,2013-09-05 21:33:00,
2013-09-05 16:38:00,77.6,57.5,30.15,SSE,167,0.0,5.0,50,0.00,,,0.00,WUHU216DAVISVP2,2013-09-05 21:38:00,
2013-09-05 16:43:00,77.4,58.4,30.15,South,191,3.0,5.0,52,0.00,,,0.00,WUHU216DAVISVP2,2013-09-05 21:43:00,
2013-09-05 16:48:00,77.2,57.1,30.14,South,170,0.0,4.0,50,0.00,,,0.00,WUHU216DAVISVP2,2013-09-05 21:48:00,
2013-09-05 16:53:00,77.1,58.1,30.14,WSW,256,0.0,4.0,52,0.00,,,0.00,WUHU216DAVISVP2,2013-09-05 21:53:00,
2013-09-05 16:58:00,77.1,59.2,30.14,WSW,256,0.0,4.0,54,0.00,,,0.00,WUHU216DAVISVP2,2013-09-05 21:58:00,
2013-09-05 17:03:00,77.0,59.6,30.14,WSW,252,1.0,3.0,55,0.00,,,0.00,WUHU216DAVISVP2,2013-09-05 22:03:00,
2013-09-05 17:08:00,76.9,59.5,30.14,SE,142,1.0,3.0,55,0.00,,,0.00,WUHU216DAVISVP2,2013-09-05 22:08:00,
2013-09-05 17:13:00,76.8,58.9,30.14,NW,312,0.0,2.0,54,0.00,,,0.00,WUHU216DAVISVP2,2013-09-05 22:13:00,
2013-09-05 17:18:00,76.6,60.2,30.14,NW,312,0.0,2.0,57,0.00,,,0.00,WUHU216DAVISVP2,2013-09-05 22:18:00,
2013-09-05 17:23:00,76.4,60.0,30.14,NW,312,0.0,2.0,57,0.00,,,0.00,WUHU216DAVISVP2,2013-09-05 22:23:00,
2013-09-05 17:28:00,76.2,59.9,30.14,NW,314,1.0,2.0,57,0.00,,,0.00,WUHU216DAVISVP2,2013-09-05 22:28:00,
2013-09-05 17:33:00,76.0,59.7,30.14,ENE,69,0.0,3.0,57,0.00,,,0.00,WUHU216DAVISVP2,2013-09-05 22:33:00,
2013-09-05 17:38:00,75.7,58.9,30.13,South,186,1.0,3.0,56,0.00,,,0.00,WUHU216DAVISVP2,2013-09-05 22:38:00,
2013-09-05 17:43:00,75.4,58.1,30.13,SSW,202,0.0,3.0,55,0.00,,,0.00,WUHU216DAVISVP2,2013-09-05 22:43:00,
2013-09-05 17:48:00,75.2,58.9,30.13,SSE,155,0.0,3.0,57,0.00,,,0.00,WUHU216DAVISVP2,2013-09-05 22:48:00,
2013-09-05 17:53:00,75.0,58.7,30.13,NNE,17,0.0,3.0,57,0.00,,,0.00,WUHU216DAVISVP2,2013-09-05 22:53:00,
2013-09-05 17:58:00,74.8,58.1,30.13,SSW,200,0.0,3.0,56,0.00,,,0.00,WUHU216DAVISVP2,2013-09-05 22:58:00,
2013-09-05 18:03:00,74.7,58.9,30.13,SSW,199,0.0,3.0,58,0.00,,,0.00,WUHU216DAVISVP2,2013-09-05 23:03:00,
2013-09-05 18:08:00,74.5,58.8,30.13,South,173,0.0,3.0,58,0.00,,,0.00,WUHU216DAVISVP2,2013-09-05 23:08:00,
2013-09-05 18:13:00,74.4,59.1,30.13,SSE,154,2.0,3.0,59,0.00,,,0.00,WUHU216DAVISVP2,2013-09-05 23:13:00,
2013-09-05 18:18:00,74.2,58.0,30.13,SSE,148,0.0,3.0,57,0.00,,,0.00,WUHU216DAVISVP2,2013-09-05 23:18:00,
2013-09-05 18:23:00,74.1,58.4,30.13,SSW,213,0.0,3.0,58,0.00,,,0.00,WUHU216DAVISVP2,2013-09-05 23:23:00,
2013-09-05 18:28:00,74.0,59.2,30.12,SW,214,0.0,3.0,60,0.00,,,0.00,WUHU216DAVISVP2,2013-09-05 23:28:00,
2013-09-05 18:33:00,74.0,58.8,30.12,SSW,213,0.0,4.0,59,0.00,,,0.00,WUHU216DAVISVP2,2013-09-05 23:33:00,
2013-09-05 18:38:00,73.9,58.7,30.12,SE,141,0.0,4.0,59,0.00,,,0.00,WUHU216DAVISVP2,2013-09-05 23:38:00,
2013-09-05 18:43:00,73.8,58.6,30.12,East,92,0.0,4.0,59,0.00,,,0.00,WUHU216DAVISVP2,2013-09-05 23:43:00,
2013-09-05 18:48:00,73.7,58.9,30.12,SE,144,0.0,4.0,60,0.00,,,0.00,WUHU216DAVISVP2,2013-09-05 23:48:00,
2013-09-05 18:53:00,73.6,58.9,30.12,SSW,202,0.0,3.0,60,0.00,,,0.00,WUHU216DAVISVP2,2013-09-05 23:53:00,
2013-09-05 18:58:00,73.4,59.1,30.12,SE,144,0.0,3.0,61,0.00,,,0.00,WUHU216DAVISVP2,2013-09-05 23:58:00,
2013-09-05 19:03:00,73.3,59.0,30.11,SE,144,0.0,2.0,61,0.00,,,0.00,WUHU216DAVISVP2,2013-09-06 00:03:00,
2013-09-05 19:08:00,73.1,58.8,30.11,SE,144,0.0,2.0,61,0.00,,,0.00,WUHU216DAVISVP2,2013-09-06 00:08:00,
2013-09-05 19:13:00,73.0,59.2,30.11,SE,144,0.0,1.0,62,0.00,,,0.00,WUHU216DAVISVP2,2013-09-06 00:13:00,
2013-09-05 19:18:00,72.9,59.6,30.11,SE,144,0.0,1.0,63,0.00,,,0.00,WUHU216DAVISVP2,2013-09-06 00:18:00,
2013-09-05 19:23:00,72.7,59.4,30.11,SE,139,0.0,2.0,63,0.00,,,0.00,WUHU216DAVISVP2,2013-09-06 00:23:00,
2013-09-05 19:28:00,72.5,59.2,30.11,SE,139,0.0,2.0,63,0.00,,,0.00,WUHU216DAVISVP2,2013-09-06 00:28:00,
2013-09-05 19:33:00,72.3,59.4,30.11,SE,140,0.0,2.0,64,0.00,,,0.00,WUHU216DAVISVP2,2013-09-06 00:33:00,
2013-09-05 19:38:00,72.2,59.3,30.10,SE,140,0.0,2.0,64,0.00,,,0.00,WUHU216DAVISVP2,2013-09-06 00:38:00,
2013-09-05 19:43:00,72.0,59.6,30.11,SE,142,0.0,3.0,65,0.00,,,0.00,WUHU216DAVISVP2,2013-09-06 00:43:00,
2013-09-05 19:48:00,71.8,59.8,30.11,SE,142,0.0,3.0,66,0.00,,,0.00,WUHU216DAVISVP2,2013-09-06 00:48:00,
2013-09-05 19:53:00,71.6,59.6,30.11,SE,142,0.0,3.0,66,0.00,,,0.00,WUHU216DAVISVP2,2013-09-06 00:53:00,
2013-09-05 19:58:00,71.4,59.9,30.11,SE,142,1.0,2.0,67,0.00,,,0.00,WUHU216DAVISVP2,2013-09-06 00:58:00,
2013-09-05 20:03:00,71.2,59.7,30.11,SE,142,0.0,1.0,67,0.00,,,0.00,WUHU216DAVISVP2,2013-09-06 01:03:00,
2013-09-05 20:08:00,71.0,59.5,30.10,SE,142,0.0,1.0,67,0.00,,,0.00,WUHU216DAVISVP2,2013-09-06 01:08:00,
2013-09-05 20:13:00,70.9,59.8,30.10,SE,141,0.0,2.0,68,0.00,,,0.00,WUHU216DAVISVP2,2013-09-06 01:13:00,
2013-09-05 20:18:00,70.7,59.6,30.10,SE,140,0.0,2.0,68,0.00,,,0.00,WUHU216DAVISVP2,2013-09-06 01:18:00,
2013-09-05 20:23:00,70.6,59.9,30.11,SE,140,0.0,2.0,69,0.00,,,0.00,WUHU216DAVISVP2,2013-09-06 01:23:00,
2013-09-05 20:28:00,70.5,60.2,30.11,SE,140,0.0,2.0,70,0.00,,,0.00,WUHU216DAVISVP2,2013-09-06 01:28:00,
2013-09-05 20:33:00,70.4,60.1,30.11,SE,140,0.0,2.0,70,0.00,,,0.00,WUHU216DAVISVP2,2013-09-06 01:33:00,
2013-09-05 20:37:00,70.2,60.4,30.11,SE,140,0.0,2.0,71,0.00,,,0.00,WUHU216DAVISVP2,2013-09-06 01:37:00,
2013-09-05 20:42:00,70.0,60.2,30.11,SE,140,0.0,2.0,71,0.00,,,0.00,WUHU216DAVISVP2,2013-09-06 01:42:00,
2013-09-05 20:47:00,69.9,60.5,30.11,SE,140,0.0,2.0,72,0.00,,,0.00,WUHU216DAVISVP2,2013-09-06 01:47:00,
2013-09-05 20:52:00,69.7,60.7,30.11,SE,142,0.0,2.0,73,0.00,,,0.00,WUHU216DAVISVP2,2013-09-06 01:52:00,
2013-09-05 20:57:00,69.5,60.8,30.11,SE,142,0.0,2.0,74,0.00,,,0.00,WUHU216DAVISVP2,2013-09-06 01:57:00,
2013-09-05 21:02:00,69.4,60.8,30.11,South,170,0.0,4.0,74,0.00,,,0.00,WUHU216DAVISVP2,2013-09-06 02:02:00,
2013-09-05 21:07:00,69.3,60.7,30.11,SSW,198,0.0,6.0,74,0.00,,,0.00,WUHU216DAVISVP2,2013-09-06 02:07:00,
2013-09-05 21:12:00,69.2,60.6,30.11,SSW,195,4.0,6.0,74,0.00,,,0.00,WUHU216DAVISVP2,2013-09-06 02:12:00,
2013-09-05 21:17:00,69.2,60.6,30.11,SW,218,0.0,6.0,74,0.00,,,0.00,WUHU216DAVISVP2,2013-09-06 02:17:00,
2013-09-05 21:22:00,69.2,60.9,30.11,South,182,0.0,6.0,75,0.00,,,0.00,WUHU216DAVISVP2,2013-09-06 02:22:00,
2013-09-05 21:27:00,69.2,60.9,30.11,SSW,196,0.0,5.0,75,0.00,,,0.00,WUHU216DAVISVP2,2013-09-06 02:27:00,
2013-09-05 21:32:00,69.2,60.9,30.11,SW,217,0.0,5.0,75,0.00,,,0.00,WUHU216DAVISVP2,2013-09-06 02:32:00,
2013-09-05 21:37:00,69.2,60.9,30.10,SSW,200,2.0,6.0,75,0.00,,,0.00,WUHU216DAVISVP2,2013-09-06 02:37:00,
2013-09-05 21:42:00,69.2,60.9,30.10,SSW,196,0.0,6.0,75,0.00,,,0.00,WUHU216DAVISVP2,2013-09-06 02:42:00,
2013-09-05 21:47:00,69.2,60.9,30.10,SSW,196,0.0,6.0,75,0.00,,,0.00,WUHU216DAVISVP2,2013-09-06 02:47:00,
2013-09-05 21:52:00,69.2,61.3,30.11,SSW,196,0.0,6.0,76,0.00,,,0.00,WUHU216DAVISVP2,2013-09-06 02:52:00,
2013-09-05 21:57:00,69.2,61.3,30.10,SSW,196,0.0,5.0,76,0.00,,,0.00,WUHU216DAVISVP2,2013-09-06 02:57:00,
2013-09-05 22:02:00,69.2,61.7,30.10,SSW,196,0.0,3.0,77,0.00,,,0.00,WUHU216DAVISVP2,2013-09-06 03:02:00,
2013-09-05 22:07:00,69.2,61.7,30.10,SSW,196,0.0,2.0,77,0.00,,,0.00,WUHU216DAVISVP2,2013-09-06 03:07:00,
2013-09-05 22:12:00,69.1,61.9,30.10,SSW,196,0.0,3.0,78,0.00,,,0.00,WUHU216DAVISVP2,2013-09-06 03:12:00,
2013-09-05 22:17:00,69.1,61.9,30.10,SSW,202,0.0,5.0,78,0.00,,,0.00,WUHU216DAVISVP2,2013-09-06 03:17:00,
2013-09-05 22:22:00,69.1,61.9,30.10,SSW,194,4.0,5.0,78,0.00,,,0.00,WUHU216DAVISVP2,2013-09-06 03:22:00,
2013-09-05 22:27:00,69.0,61.9,30.10,SSW,198,5.0,5.0,78,0.00,,,0.00,WUHU216DAVISVP2,2013-09-06 03:27:00,
2013-09-05 22:32:00,69.0,61.9,30.10,South,186,1.0,7.0,78,0.00,,,0.00,WUHU216DAVISVP2,2013-09-06 03:32:00,
2013-09-05 22:37:00,69.0,61.9,30.10,SSW,205,4.0,7.0,78,0.00,,,0.00,WUHU216DAVISVP2,2013-09-06 03:37:00,
2013-09-05 22:42:00,69.0,61.9,30.10,SSW,198,0.0,7.0,78,0.00,,,0.00,WUHU216DAVISVP2,2013-09-06 03:42:00,
2013-09-05 22:47:00,69.0,61.9,30.09,SSW,201,2.0,7.0,78,0.00,,,0.00,WUHU216DAVISVP2,2013-09-06 03:47:00,
2013-09-05 22:52:00,69.0,61.9,30.09,SSW,195,0.0,7.0,78,0.00,,,0.00,WUHU216DAVISVP2,2013-09-06 03:52:00,
2013-09-05 22:57:00,68.9,61.8,30.09,SSW,198,2.0,7.0,78,0.00,,,0.00,WUHU216DAVISVP2,2013-09-06 03:57:00,
2013-09-05 23:01:00,68.9,61.8,30.09,South,191,0.0,7.0,78,0.00,,,0.00,WUHU216DAVISVP2,2013-09-06 04:01:00,
2013-09-05 23:06:00,68.8,62.0,30.09,SSW,202,0.0,6.0,79,0.00,,,0.00,WUHU216DAVISVP2,2013-09-06 04:06:00,
2013-09-05 23:11:00,68.8,62.0,30.09,South,178,0.0,6.0,79,0.00,,,0.00,WUHU216DAVISVP2,2013-09-06 04:11:00,
2013-09-05 23:16:00,68.6,61.8,30.09,SSE,167,0.0,6.0,79,0.00,,,0.00,WUHU216DAVISVP2,2013-09-06 04:16:00,
2013-09-05 23:21:00,68.6,61.8,30.09,SSW,202,0.0,5.0,79,0.00,,,0.00,WUHU216DAVISVP2,2013-09-06 04:21:00,
2013-09-05 23:26:00,68.6,61.8,30.09,SE,144,0.0,5.0,79,0.00,,,0.00,WUHU216DAVISVP2,2013-09-06 04:26:00,
2013-09-05 23:31:00,68.6,61.8,30.09,SE,140,0.0,5.0,79,0.00,,,0.00,WUHU216DAVISVP2,2013-09-06 04:31:00,
2013-09-05 23:36:00,68.5,61.7,30.09,SSW,202,2.0,6.0,79,0.00,,,0.00,WUHU216DAVISVP2,2013-09-06 04:36:00,
2013-09-05 23:41:00,68.5,61.7,30.09,SSW,209,0.0,6.0,79,0.00,,,0.00,WUHU216DAVISVP2,2013-09-06 04:41:00,
2013-09-05 23:46:00,68.5,61.7,30.09,SSW,209,2.0,6.0,79,0.00,,,0.00,WUHU216DAVISVP2,2013-09-06 04:46:00,
2013-09-05 23:51:00,68.4,62.0,30.08,South,184,0.0,6.0,80,0.00,,,0.00,WUHU216DAVISVP2,2013-09-06 04:51:00,
2013-09-05 23:56:00,68.4,62.0,30.08,South,184,0.0,6.0,80,0.00,,,0.00,WUHU216DAVISVP2,2013-09-06 04:56:00,